This is the latest recevied weather packets stored in our database for station/object IZ3MEZ-13. If no packets are shown the sender has not sent any weather packets the latest 10 day(s).
| Time | Temp. | Humidity | Pressure | Rain* | Wind** | Luminosity | Snow |
|---|---|---|---|---|---|---|---|
| 1777551616 | 21.11° C | 40% | 1026.4 hPa | 0 mm | - | - | - |
| 1777548919 | 21.11° C | 41% | 1026.6 hPa | 0 mm | - | - | - |
| 1777548021 | 21.11° C | 40% | 1026.7 hPa | 0 mm | - | - | - |
| 1777545316 | 21.11° C | 41% | 1026.9 hPa | 0 mm | - | - | - |
| 1777545018 | 21.11° C | 41% | 1026.9 hPa | 0 mm | - | - | - |
| 1777544722 | 20.56° C | 43% | 1026.9 hPa | 0 mm | - | - | - |
| 1777544125 | 19.44° C | 44% | 1027 hPa | 0 mm | - | - | - |
| 1777543518 | 17.78° C | 46% | 1027 hPa | 0 mm | - | - | - |
| 1777543218 | 17.22° C | 47% | 1027.1 hPa | 0 mm | - | - | - |
| 1777542015 | 16.67° C | 49% | 1027.1 hPa | 0 mm | - | - | - |
| 1777540820 | 16.67° C | 48% | 1027.1 hPa | 0 mm | - | - | - |
| 1777540218 | 16.67° C | 48% | 1027.2 hPa | 0 mm | - | 1262 W/m² | - |
| 1777539920 | 16.67° C | 48% | 1027.1 hPa | 0 mm | - | 757 W/m² | - |
| 1777539321 | 16.67° C | 48% | 1027.1 hPa | 0 mm | - | 768 W/m² | - |
| 1777538716 | 17.22° C | 48% | 1026.9 hPa | 0 mm | - | 1758 W/m² | - |
| 1777538122 | 17.22° C | 49% | 1026.9 hPa | 0 mm | - | - | - |
| 1777537519 | 16.67° C | 51% | 1026.8 hPa | 0 mm | - | - | - |
| 1777536918 | 16.11° C | 52% | 1026.9 hPa | 0 mm | - | - | - |
| 1777536319 | 15.56° C | 52% | 1026.8 hPa | 0 mm | - | - | - |
| 1777535725 | 15.56° C | 53% | 1026.8 hPa | 0 mm | - | - | - |
| 1777534517 | 15° C | 52% | 1026.7 hPa | 0 mm | - | - | - |
| 1777533928 | 15° C | 52% | 1026.7 hPa | 0 mm | - | - | - |
| 1777533316 | 13.89° C | 53% | 1026.6 hPa | 0 mm | - | - | - |
| 1777532717 | 13.89° C | 55% | 1026.5 hPa | 0 mm | - | 1709 W/m² | - |
| 1777532116 | 13.33° C | 55% | 1026.5 hPa | 0 mm | - | 1451 W/m² | - |
* Rain latest hour (hover to see other rain measurements)
** Current wind speed in m/s (hover to see current wind gust speed)